Theta_e
336 328 330 327 314 312 310 311 319 317 319 322 323 320 319 320 315 312 336 340 340 340 350 351 354 353 352 350 349 349 348 346 343 341 340 339 337 336 335 336 336 336 336 336 337 338 338 339 337
324 323 328 323 310 307 309 316 317 320 323 325 324 323 320 317 323 324 331 341 341 340 351 347 354 354 353 352 350 350 348 346 344 343 342 341 340 339 338 339 340 340 340 339 340 340 341 341 341
332 326 322 316 312 308 310 317 320 323 324 323 320 321 320 319 326 327 339 341 341 340 350 349 354 353 353 352 351 350 350 348 345 344 343 342 342 342 341 342 342 343 343 343 342 342 342 343 343
323 325 323 314 311 316 316 321 322 321 324 322 321 317 323 329 326 330 336 339 339 338 345 353 354 354 354 353 352 351 350 348 347 345 344 343 343 344 344 343 344 345 345 346 344 344 343 344 344
326 322 313 310 310 314 318 321 324 322 322 321 321 317 319 328 330 332 335 338 338 338 340 352 355 354 354 354 352 352 351 350 349 346 345 344 346 346 346 345 346 346 346 346 345 345 345 344 344
319 320 311 307 310 314 317 320 319 320 322 321 319 319 321 329 329 332 334 337 339 338 341 347 356 355 354 354 353 352 351 350 350 349 348 348 349 348 347 347 346 346 344 344 343 343 344 343 342
317 316 310 310 309 312 315 320 317 318 318 319 322 316 323 326 332 333 335 337 340 340 340 343 357 356 354 354 352 352 352 352 351 350 349 350 349 349 348 346 344 342 339 339 339 340 341 342 341
319 316 311 312 310 309 317 318 321 318 318 324 324 316 319 327 331 331 333 334 337 340 340 342 350 356 354 350 354 353 353 352 352 351 350 350 348 348 346 343 340 338 337 336 336 338 339 340 342
320 311 308 311 311 312 318 317 321 322 320 321 323 323 325 329 330 329 329 330 332 335 340 342 341 350 353 348 349 353 352 351 351 349 349 349 344 339 343 342 338 336 336 335 335 335 336 338 339
314 311 311 317 317 315 318 318 319 319 318 319 320 324 327 328 328 327 326 326 329 331 336 340 344 347 350 345 350 352 347 347 347 346 345 346 343 342 340 342 335 336 336 336 335 336 337 338 335
315 311 317 318 319 320 318 318 321 318 316 319 318 322 325 325 326 326 326 326 328 332 334 339 352 355 351 346 344 349 346 345 347 347 350 347 340 341 340 340 339 339 337 337 336 336 336 335 333
313 317 318 319 320 318 318 320 318 319 320 323 323 324 324 324 324 325 325 326 328 332 334 339 345 355 357 349 343 346 346 346 344 345 349 345 340 342 341 338 339 340 337 340 336 334 341 336 336
313 315 317 319 319 318 319 317 317 318 322 324 324 324 323 324 324 325 326 327 329 332 334 336 347 355 358 359 346 347 348 343 344 342 343 342 340 342 339 340 338 338 336 335 339 337 335 338 336
315 315 315 316 316 317 315 316 318 319 323 322 321 321 323 323 323 324 326 326 329 335 336 338 348 356 354 355 359 353 352 344 341 339 339 344 342 343 339 341 337 338 337 336 335 335 336 336 334
315 311 314 315 315 314 316 312 313 319 320 319 320 320 321 322 323 323 326 330 330 335 341 344 352 356 357 357 355 352 345 342 339 338 342 342 344 343 342 338 339 343 347 340 339 337 337 332 333
309 311 306 312 314 315 314 306 314 319 318 318 319 319 320 321 322 325 326 330 336 338 342 343 340 348 356 356 353 349 342 340 337 337 339 343 344 343 342 339 339 345 342 342 339 334 332 331 330
308 302 305 307 314 313 312 308 315 318 317 317 318 319 319 320 322 328 327 328 336 342 345 342 348 345 353 356 351 350 351 339 336 337 338 341 342 341 342 339 341 343 340 337 336 335 333 331 330
300 302 304 304 310 311 310 309 314 316 315 315 317 318 319 319 321 326 328 329 333 337 342 347 346 353 356 351 350 342 338 337 336 337 337 341 340 339 343 339 342 343 337 336 334 335 331 330 335
305 304 304 307 312 309 308 309 312 314 314 314 316 318 318 319 323 325 327 331 334 336 339 344 343 352 350 345 339 336 333 336 335 336 339 339 340 342 342 341 340 340 336 334 335 332 332 332 335
303 302 303 307 311 309 309 308 312 314 314 315 315 317 318 319 322 323 326 334 334 336 339 340 341 347 348 343 342 337 337 334 334 336 339 340 340 341 339 339 340 339 338 336 332 335 332 334 336
302 301 302 303 307 310 307 305 307 312 314 315 316 317 318 319 320 323 324 334 334 335 338 339 341 345 346 347 342 339 337 337 334 333 334 338 339 340 340 338 338 338 339 336 336 334 331 329 333
298 305 304 304 302 298 306 296 305 309 310 312 314 317 318 319 321 323 325 332 334 335 337 339 342 342 342 346 343 344 334 329 332 336 334 337 338 337 337 337 336 336 339 335 334 336 332 333 329
301 305 304 304 301 301 301 298 302 308 307 310 314 316 318 319 320 321 328 332 334 335 336 339 341 340 342 342 344 335 336 331 333 333 336 339 339 337 336 336 336 337 338 337 335 333 333 335 333
305 303 304 304 301 294 299 298 300 304 308 311 314 316 318 319 321 325 331 332 333 334 336 338 338 338 340 338 339 339 337 334 332 333 335 337 340 338 337 334 336 337 338 335 333 335 334 334 336
303 300 293 292 292 293 301 299 302 309 312 313 314 315 317 321 324 327 329 329 331 333 334 335 336 337 337 337 336 336 337 337 336 335 336 335 335 337 337 335 337 337 337 337 337 336 335 336 335
300 300 294 288 291 294 302 297 303 312 312 314 316 317 321 323 326 327 328 329 330 332 333 334 335 334 335 335 335 337 338 335 336 336 334 337 335 337 336 336 337 336 336 336 337 342 339 337 338
300 298 303 298 301 297 301 304 310 312 312 312 314 315 320 324 326 327 328 330 330 332 333 334 334 334 334 333 336 337 338 336 336 336 337 335 336 333 335 336 336 335 335 336 336 337 335 335 336
302 305 296 299 291 292 298 301 302 307 309 312 314 315 320 325 326 327 328 330 331 332 334 335 334 333 332 334 335 335 337 337 337 335 334 336 334 333 334 335 336 335 335 336 337 336 335 334 335
298 299 300 301 300 294 294 299 311 310 311 312 316 319 322 324 325 327 328 329 331 332 333 334 332 331 331 334 334 337 336 336 336 334 333 334 334 333 332 332 334 334 334 335 334 334 333 331 330
302 301 301 297 297 299 300 299 311 312 314 315 316 321 324 325 325 326 327 329 330 331 332 332 330 329 331 332 333 334 336 337 336 335 336 334 333 332 331 330 330 332 332 333 332 330 331 330 328
Wind_Speed
10 12 11 7 9 8 15 9 15 2 6 0 4 7 11 10 8 6 5 7 11 16 19 22 21 20 19 18 17 17 15 14 13 12 11 10 8 7 5 5 5 5 5 4 5 5 5 6 6
12 12 6 9 10 13 14 12 9 9 9 3 9 9 12 8 7 5 8 9 11 16 18 20 21 19 18 17 17 17 16 15 13 12 11 10 8 7 7 7 7 7 7 6 7 7 7 7 8
16 13 9 7 14 15 6 6 8 4 1 8 7 2 8 5 7 7 11 6 10 14 17 18 23 20 19 18 17 17 15 14 14 13 11 10 9 9 8 9 9 9 10 10 10 10 11 10 10
10 8 9 12 19 16 10 4 2 1 7 5 10 11 2 10 3 8 5 7 9 13 15 16 23 20 20 20 18 17 16 15 14 13 11 10 10 10 9 10 10 11 13 13 12 12 12 12 11
11 10 13 14 17 19 6 9 13 11 10 5 6 12 4 12 6 3 3 4 7 11 14 18 23 21 20 19 18 17 17 15 13 13 11 11 10 11 11 12 11 12 13 15 14 14 13 12 11
10 12 14 15 20 17 6 8 11 14 15 9 4 13 8 7 7 7 3 4 8 9 12 15 22 22 19 18 18 17 17 15 14 12 10 10 11 12 14 14 11 11 11 11 11 12 12 11 11
16 13 16 19 18 15 3 6 10 14 11 12 2 6 11 1 9 4 4 4 7 10 13 12 16 17 17 16 17 17 16 15 14 12 11 11 11 12 13 10 10 10 10 11 12 13 13 11 10
15 15 22 18 17 17 7 4 15 11 11 9 3 9 13 16 13 7 11 9 10 12 12 13 13 15 16 16 15 15 15 14 13 12 11 11 11 11 11 10 13 13 10 9 10 11 12 13 12
17 16 17 22 21 16 14 16 10 2 11 14 10 18 17 16 15 13 13 15 12 9 11 13 15 15 16 16 16 15 16 15 12 11 12 9 9 12 14 16 8 8 8 10 10 11 11 12 14
20 18 24 23 19 16 19 18 17 16 13 17 15 19 18 11 10 16 16 16 16 15 13 14 15 15 16 13 14 15 13 12 11 11 11 10 10 10 6 5 5 9 11 12 13 13 13 12 10
25 24 23 24 24 20 21 24 20 21 22 21 20 19 18 20 17 17 19 19 17 17 8 14 14 12 15 14 12 9 9 9 9 12 10 8 7 7 7 7 7 9 15 9 13 12 10 12 9
29 29 26 26 27 26 30 28 30 25 25 22 19 19 18 22 17 17 19 18 19 16 14 13 16 13 12 10 11 11 10 10 8 9 10 7 6 8 8 6 6 4 6 4 6 6 3 5 7
33 31 31 30 30 33 33 34 31 32 25 25 25 21 20 21 20 18 18 16 17 16 13 12 16 15 12 12 11 10 10 9 9 8 9 8 9 7 6 7 5 7 5 5 3 4 4 3 7
30 33 34 34 34 34 33 35 30 27 25 29 26 22 23 22 20 17 17 15 17 14 13 11 15 16 16 14 12 10 9 10 9 8 8 11 8 6 7 6 6 6 7 7 6 5 6 5 6
33 36 34 34 30 31 24 33 36 28 26 27 29 23 25 20 19 17 17 15 15 13 11 11 13 17 17 16 14 10 10 10 10 8 8 9 9 8 8 8 7 6 5 6 6 8 6 9 9
33 34 31 30 32 30 27 37 28 26 26 27 22 20 17 18 21 17 19 16 12 12 10 12 13 18 16 14 12 10 10 10 8 8 7 10 10 9 8 8 7 6 7 5 4 7 8 7 7
27 28 36 31 28 25 29 40 28 25 26 26 29 23 15 19 23 20 18 16 12 11 11 13 12 16 17 14 12 11 9 9 8 7 7 9 10 10 7 9 7 8 8 6 5 7 5 9 7
29 33 30 33 25 26 33 36 30 23 23 25 29 20 19 22 23 21 19 15 12 9 8 10 11 12 15 12 10 10 9 8 7 7 7 8 8 8 6 9 7 7 7 7 4 8 6 8 5
29 27 31 32 27 29 31 31 24 21 26 26 26 25 18 24 23 21 17 5 4 7 6 9 12 13 12 12 12 11 10 8 7 7 8 7 7 5 7 7 8 8 8 9 9 7 8 7 6
33 32 33 28 24 23 27 27 27 24 25 24 28 28 23 22 26 21 13 5 5 7 9 12 13 14 13 10 9 8 7 8 8 7 6 6 8 8 6 5 7 9 7 9 9 9 7 7 6
33 33 29 30 23 22 23 27 29 26 25 26 28 28 26 26 24 19 16 7 7 9 11 13 14 15 13 11 7 5 6 2 4 6 7 9 7 3 7 9 7 8 7 6 8 7 10 7 7
33 29 27 25 21 20 21 25 25 20 23 24 25 22 21 20 19 19 9 10 9 10 11 14 15 16 13 11 9 9 7 7 4 2 2 2 4 7 4 6 7 6 5 7 7 8 9 8 7
36 25 26 26 21 23 26 21 16 20 21 21 21 22 23 21 21 19 13 12 11 12 13 15 16 15 13 11 9 8 6 6 3 3 1 4 3 5 6 6 4 6 6 6 7 5 7 6 7
29 27 25 20 18 22 23 22 19 22 20 21 20 20 19 19 17 6 13 13 13 14 15 16 17 14 13 10 9 7 6 1 2 4 0 2 3 3 6 6 6 3 4 4 4 5 7 5 6
28 26 16 18 19 22 16 21 21 19 20 18 15 16 12 7 9 12 15 15 16 17 17 16 16 15 13 11 9 7 5 3 4 3 4 4 2 3 6 4 1 2 2 5 6 6 5 5 4
32 29 17 29 14 17 23 18 13 16 5 8 15 10 8 9 11 14 16 17 18 18 18 17 16 15 13 11 9 7 6 7 3 3 5 5 2 4 5 3 3 3 4 4 3 4 4 4 3
39 30 33 24 20 14 15 17 19 17 16 8 10 16 12 11 13 16 18 17 18 17 17 16 15 14 12 11 8 7 6 0 4 3 2 5 4 4 4 3 2 2 4 3 2 1 1 1 3
32 27 24 22 26 19 13 11 8 5 10 12 12 16 14 14 16 17 17 18 17 16 15 15 14 13 12 11 9 8 7 4 4 3 0 5 3 3 6 3 2 3 3 4 3 2 2 1 2
25 25 29 21 20 14 12 12 7 4 4 15 14 16 16 17 17 18 17 17 17 16 15 14 13 12 11 10 9 7 7 6 5 4 3 6 5 4 5 5 5 4 5 5 3 2 3 3 1
31 29 30 18 24 17 12 4 5 9 10 13 8 12 17 17 18 18 18 18 17 16 15 14 12 12 11 10 8 8 7 5 5 4 3 8 7 5 4 3 3 9 5 3 3 3 3 6 5
Wind_Direction
188 203 219 214 236 237 253 229 254 140 218 94 317 286 333 343 332 4 99 118 131 148 156 170 174 173 170 169 168 169 173 175 178 180 179 182 184 191 203 211 217 225 230 242 248 246 255 272 270
192 205 226 270 252 221 232 209 184 252 62 323 281 262 245 305 9 354 122 137 148 149 159 176 177 175 173 172 173 172 176 179 184 188 190 191 197 206 219 238 243 247 256 260 264 264 254 250 263
262 212 258 225 235 265 339 13 262 91 326 284 276 156 321 331 83 356 67 157 159 158 165 179 171 177 177 177 179 176 180 182 189 196 200 205 212 222 232 242 250 255 260 266 268 266 266 250 242
201 209 253 258 253 231 308 284 137 322 194 225 300 295 144 66 8 25 39 171 174 172 173 160 168 181 181 181 182 179 182 186 195 201 208 219 232 238 240 250 254 261 261 261 263 264 262 263 263
235 261 246 239 250 272 291 290 316 294 286 235 244 289 321 101 96 77 100 208 214 184 180 154 168 182 185 184 183 183 182 188 197 209 216 229 242 250 253 257 257 263 266 267 271 273 267 273 271
227 237 249 247 241 245 213 293 280 276 273 284 200 259 288 116 84 12 60 183 217 213 183 158 170 179 187 190 185 188 184 187 197 210 219 234 246 257 261 258 262 266 273 276 280 282 283 273 262
242 238 249 263 273 267 237 312 274 268 273 270 275 323 298 62 83 338 317 258 235 224 187 194 171 184 186 192 192 189 190 190 193 202 217 234 252 263 273 263 266 265 270 276 276 273 273 272 260
244 253 267 262 262 270 289 262 270 286 277 43 345 272 289 323 355 326 270 258 227 220 213 199 185 181 196 195 199 193 193 194 197 200 213 234 256 260 246 245 238 248 260 268 273 275 277 271 265
232 256 252 248 251 266 271 245 255 193 290 297 287 302 298 296 289 296 289 286 256 249 211 205 201 193 193 200 190 197 198 198 202 211 221 228 249 263 222 225 171 178 236 258 264 265 265 266 261
230 238 243 263 265 266 274 285 294 276 258 272 268 279 285 308 287 277 290 289 276 246 219 206 207 199 191 204 193 198 201 206 206 218 227 214 233 255 300 338 198 216 231 241 246 245 247 248 255
229 241 254 263 271 272 271 273 276 276 273 279 289 294 300 296 291 281 274 278 281 282 257 203 186 203 199 201 189 186 202 201 206 218 219 230 259 252 239 238 221 214 209 233 208 222 228 233 246
242 239 248 260 265 273 273 277 283 267 273 280 289 285 286 289 287 286 290 290 288 246 239 211 192 191 198 207 195 192 193 199 200 199 208 229 238 228 241 266 279 238 238 294 256 272 346 305 292
242 244 252 255 261 266 275 277 276 272 271 280 285 284 279 273 278 279 287 290 274 270 269 241 184 181 195 215 199 201 200 191 200 199 197 222 237 236 256 267 273 290 278 251 255 272 270 257 247
250 256 256 261 259 266 271 270 264 263 260 266 279 274 272 274 279 284 290 283 273 267 266 256 183 175 189 201 228 187 189 184 195 205 210 198 239 233 257 245 228 255 268 257 269 259 268 235 263
255 258 260 260 265 264 265 266 263 266 265 272 271 269 264 264 271 288 290 283 267 261 249 245 195 179 188 197 212 190 187 212 186 205 205 210 215 230 252 268 231 238 268 265 243 261 255 260 248
249 253 256 251 251 251 254 258 264 276 270 268 267 259 263 269 278 288 291 284 268 260 248 221 213 187 185 195 199 196 196 200 198 197 204 201 223 236 254 247 258 263 252 229 230 247 249 250 272
236 246 240 253 251 252 248 258 254 260 268 264 266 265 274 267 278 286 286 278 254 244 236 233 214 197 184 196 197 199 190 196 199 197 209 204 220 233 227 261 253 256 250 238 242 250 238 248 253
228 238 244 255 253 243 242 256 263 265 263 271 273 257 251 274 270 282 284 275 255 264 248 214 192 191 178 182 191 198 179 203 198 202 218 220 231 241 230 252 249 246 229 241 254 251 237 238 233
243 246 247 249 249 237 255 270 262 256 262 264 266 263 260 266 278 277 276 260 274 258 217 186 184 187 171 181 186 191 189 201 201 213 216 235 246 256 235 247 243 239 234 232 228 248 246 252 278
243 249 249 258 259 256 258 261 268 260 262 262 268 271 267 266 274 272 266 126 201 196 186 180 183 169 178 174 194 186 197 190 208 206 201 223 253 260 263 256 248 240 237 239 233 229 232 248 236
231 236 245 255 262 262 267 269 264 264 264 270 265 270 272 264 265 267 251 156 168 182 180 172 170 164 180 174 177 167 168 198 191 214 216 212 226 246 243 244 240 251 243 245 237 231 230 236 223
235 228 241 253 260 256 249 266 257 262 264 259 263 263 258 259 257 250 211 153 168 169 165 159 156 165 174 160 154 170 184 204 200 224 331 352 224 260 226 249 247 240 227 229 232 224 228 228 230
243 236 236 237 248 263 254 259 271 270 267 268 264 257 257 258 250 246 149 158 163 158 157 153 155 167 147 181 166 171 225 173 229 226 175 235 267 274 257 231 234 214 216 225 235 237 220 226 221
238 235 241 237 239 246 245 253 260 266 269 267 262 254 248 238 229 157 132 145 148 155 151 149 156 151 159 161 154 213 144 297 273 203 338 277 240 248 250 240 213 182 214 222 219 211 210 206 220
224 222 219 227 225 243 236 242 262 279 276 271 274 249 261 85 123 147 151 152 154 150 147 151 151 151 158 157 158 158 159 177 201 260 230 220 223 227 223 204 237 251 233 219 206 201 212 201 221
224 213 213 210 214 233 222 242 260 249 266 286 238 247 141 171 148 157 156 150 150 148 150 149 152 153 157 159 162 156 151 187 199 199 333 78 176 193 177 139 190 203 211 225 197 221 199 223 218
209 217 218 243 238 248 238 213 232 250 252 241 221 193 148 158 155 156 146 152 149 151 152 150 152 153 161 157 162 157 168 94 79 69 230 115 180 164 145 130 151 186 157 187 216 229 117 292 268
234 208 206 221 243 233 245 215 244 171 205 179 177 177 153 153 157 150 150 148 149 150 148 150 155 156 157 160 160 169 155 169 144 152 82 75 166 116 123 146 151 148 107 93 58 100 141 181 22
215 209 213 219 228 231 237 238 197 176 215 179 177 157 151 162 157 151 148 149 148 152 149 153 152 157 157 161 175 145 148 182 150 143 157 132 167 178 192 162 156 121 93 76 100 76 95 89 88
216 214 204 223 212 236 256 146 84 185 200 188 167 127 152 161 154 154 151 153 153 155 152 156 155 156 160 174 168 167 149 178 140 172 148 150 186 190 179 181 146 80 71 58 86 113 177 162 159